Retour au catalogue

COSMOS 970 DEB

ActifLEO
NORAD 10881·DEBRIS·🇷🇺 Russia

Lancé Dec 21, 1977 depuis Baikonur Cosmodrome

Loading…

Prochains Passages (prochaines 24 heures)

TLE

FraisSource: Space-Track

Époque: Sep 14, 2026, 10:14 UTC

1 10881U 77121AC  26257.42685162  .00000110  00000-0  20513-3 0  9998
2 10881  65.8432 221.9352 0122572  94.6600 266.8472 13.69576707429524

Suivez COSMOS 970 DEB en temps réel avec AllMySat

Download on the App Store